EW6058 Weather Reports


Display with metric or nautical units.
time (UTC)temp
F
wind
direction
speed
MPH
gust
MPH
rain 1hr
in
rain 24hr
in
rain mn
in
humidity
%
barometer
mb
20260505014003 52 186 1.0 4.0 0.00 0.00 0.00 80 1013.2
20260505013502 52 169 1.0 4.0 0.00 0.00 0.00 80 1013.2
20260505013003 52 188 1.0 4.0 0.00 0.00 0.00 80 1013.1
20260505012502 52 170 2.0 5.0 0.00 0.00 0.00 80 1013.0
20260505012003 52 180 2.0 6.0 0.00 0.00 0.00 79 1012.9
20260505011506 52 192 2.0 6.0 0.00 0.00 0.00 78 1012.8
20260505011003 53 172 2.0 6.0 0.00 0.00 0.00 78 1012.7
20260505010503 53 165 2.0 7.0 0.00 0.00 0.00 77 1012.7
20260505010009 53 174 2.0 7.0 0.00 0.00 0.00 77 1012.6
20260505005504 53 195 2.0 4.0 0.00 0.00 0.00 76 1012.7
20260505005007 53 143 2.0 7.0 0.00 0.00 0.00 75 1012.6
20260505004528 53 174 2.0 7.0 0.00 0.00 0.00 75 1012.4
20260505004005 53 169 2.0 8.0 0.00 0.00 0.00 75 1012.4
20260505003510 52 158 2.0 8.0 0.00 0.00 0.00 75 1012.3
20260505003002 53 213 1.0 5.0 0.00 0.00 0.00 74 1012.2
20260505002503 53 167 2.0 5.0 0.00 0.00 0.00 74 1012.2
20260505002003 53 168 3.0 4.0 0.00 0.00 0.00 74 1012.1
20260505001504 53 179 2.0 5.0 0.00 0.00 0.00 73 1011.9
20260505001002 53 214 2.0 5.0 0.00 0.00 0.00 73 1011.6
20260505000504 52 224 3.0 6.0 0.00 0.00 0.00 72 1011.8
20260505000006 53 206 2.0 7.0 0.00 0.00 0.00 72 1011.7
20260504235506 53 158 1.0 7.0 0.00 0.00 0.00 71 1011.7
20260504235004 53 181 2.0 4.0 0.00 0.00 0.00 71 1011.6
20260504234525 53 176 1.0 6.0 0.00 0.00 0.00 70 1011.4
20260504234006 53 198 2.0 6.0 0.00 0.00 0.00 70 1011.5
20260504233507 53 158 2.0 6.0 0.00 0.00 0.00 70 1011.5
20260504233014 53 192 2.0 6.0 0.00 0.00 0.00 70 1011.5
20260504232508 53 189 1.0 6.0 0.00 0.00 0.00 69 1011.4
20260504232008 53 158 3.0 6.0 0.00 0.00 0.00 68 1011.4
20260504231511 54 178 2.0 5.0 0.00 0.00 0.00 68 1011.4
20260504231004 54 172 1.0 5.0 0.00 0.00 0.00 67 1011.3
20260504230503 54 169 1.0 6.0 0.00 0.00 0.00 67 1011.2
20260504230005 54 150 2.0 6.0 0.00 0.00 0.00 67 1011.3
20260504225507 55 171 2.0 6.0 0.00 0.00 0.00 65 1011.1
20260504225004 55 198 2.0 6.0 0.00 0.00 0.00 65 1011.2
20260504224507 55 174 2.0 6.0 0.00 0.00 0.00 64 1011.1
20260504224003 55 165 2.0 6.0 0.00 0.00 0.00 64 1011.1
20260504223507 55 143 3.0 6.0 0.00 0.00 0.00 63 1011.0
20260504223014 56 170 3.0 6.0 0.00 0.00 0.00 63 1011.0
20260504222508 56 213 3.0 6.0 0.00 0.00 0.00 63 1011.1
20260504222006 56 154 2.0 5.0 0.00 0.00 0.00 62 1010.9
20260504221518 56 172 2.0 5.0 0.00 0.00 0.00 61 1011.0
20260504221006 56 148 2.0 9.0 0.00 0.00 0.00 61 1010.9
20260504220507 56 219 2.0 9.0 0.00 0.00 0.00 63 1011.0
20260504220004 56 84 2.0 7.0 0.00 0.00 0.00 63 1011.1
20260504215504 56 132 3.0 6.0 0.00 0.00 0.00 62 1011.2
20260504215005 57 224 2.0 6.0 0.00 0.00 0.00 61 1011.1
20260504214514 56 167 2.0 5.0 0.00 0.00 0.00 62 1011.0
20260504214004 57 165 3.0 7.0 0.00 0.00 0.00 62 1011.1
20260504213506 57 213 3.0 7.0 0.00 0.00 0.00 62 1011.0
20260504213012 57 160 2.0 6.0 0.00 0.00 0.00 62 1011.1
20260504212508 57 146 2.0 6.0 0.00 0.00 0.00 61 1011.1
20260504212008 58 143 2.0 7.0 0.00 0.00 0.00 61 1011.2
20260504211516 58 173 3.0 6.0 0.00 0.00 0.00 59 1011.1
20260504211007 58 147 1.0 4.0 0.00 0.00 0.00 60 1011.1
20260504210507 58 151 2.0 4.0 0.00 0.00 0.00 59 1011.1
20260504210021 58 160 3.0 4.0 0.00 0.00 0.00 58 1011.1
20260504205510 59 183 1.0 6.0 0.00 0.00 0.00 59 1011.1
20260504205008 58 185 2.0 7.0 0.00 0.00 0.00 58 1010.9
20260504204505 59 132 3.0 7.0 0.00 0.00 0.00 57 1010.9
20260504204003 59 197 2.0 7.0 0.00 0.00 0.00 57 1011.0
20260504203503 59 174 3.0 7.0 0.00 0.00 0.00 56 1010.8
20260504203013 59 168 2.0 8.0 0.00 0.00 0.00 54 1010.8
20260504202504 60 74 3.0 8.0 0.00 0.00 0.00 54 1010.8
20260504202005 60 141 3.0 7.0 0.00 0.00 0.00 53 1010.7
20260504201514 61 154 2.0 6.0 0.00 0.00 0.00 53 1010.7
20260504201007 61 167 2.0 7.0 0.00 0.00 0.00 52 1010.6
20260504200511 61 186 3.0 7.0 0.00 0.00 0.00 49 1010.7
20260504200023 62 168 3.0 6.0 0.00 0.00 0.00 48 1010.7
20260504195509 62 194 2.0 4.0 0.00 0.00 0.00 49 1010.8
20260504195007 61 193 2.0 4.0 0.00 0.00 0.00 48 1010.8
20260504194521 61 198 3.0 9.0 0.00 0.00 0.00 49 1010.9
20260504194006 61 174 2.0 10.0 0.00 0.00 0.00 50 1010.8
20260504193508 61 179 3.0 10.0 0.00 0.00 0.00 51 1010.8
20260504193012 61 149 4.0 9.0 0.00 0.00 0.00 51 1010.9
20260504192503 61 191 4.0 9.0 0.00 0.00 0.00 51 1010.8
20260504192010 61 131 2.0 7.0 0.00 0.00 0.00 53 1010.9
20260504191513 61 161 2.0 7.0 0.00 0.00 0.00 53 1011.0
20260504191007 61 154 3.0 10.0 0.00 0.00 0.00 52 1011.3
20260504190505 62 172 5.0 10.0 0.00 0.00 0.00 50 1011.1
20260504190014 62 146 3.0 8.0 0.00 0.00 0.00 51 1011.3
20260504185506 62 171 2.0 6.0 0.00 0.00 0.00 51 1011.3
20260504185005 63 150 3.0 6.0 0.00 0.00 0.00 50 1011.4
20260504184521 62 192 2.0 11.0 0.00 0.00 0.00 52 1011.4
20260504184012 62 194 4.0 11.0 0.00 0.00 0.00 50 1011.3
20260504183509 62 160 3.0 10.0 0.00 0.00 0.00 51 1011.4
20260504183028 62 145 3.0 10.0 0.00 0.00 0.00 51 1011.3
20260504182509 62 203 3.0 9.0 0.00 0.00 0.00 50 1011.3
20260504182010 62 169 2.0 8.0 0.00 0.00 0.00 52 1011.3
20260504181510 62 144 3.0 6.0 0.00 0.00 0.00 52 1011.1
20260504181004 62 204 3.0 6.0 0.00 0.00 0.00 53 1011.1
20260504180507 62 223 2.0 5.0 0.00 0.00 0.00 53 1011.1
20260504180014 62 175 2.0 4.0 0.00 0.00 0.00 55 1011.1
20260504175507 62 186 2.0 7.0 0.00 0.00 0.00 56 1011.2
20260504175005 61 138 2.0 8.0 0.00 0.00 0.00 58 1011.3
20260504174518 61 202 2.0 8.0 0.00 0.00 0.00 58 1011.4
20260504174008 61 196 4.0 8.0 0.00 0.00 0.00 58 1011.3
20260504173510 61 195 3.0 7.0 0.00 0.00 0.00 59 1011.3
20260504173023 61 201 3.0 9.0 0.00 0.00 0.00 59 1011.3
20260504172509 61 187 3.0 9.0 0.00 0.00 0.00 59 1011.3
20260504172009 61 231 4.0 11.0 0.00 0.00 0.00 57 1011.3
20260504171537 61 152 3.0 11.0 0.00 0.00 0.00 57 1011.4
20260504171013 61 188 4.0 11.0 0.00 0.00 0.00 59 1011.4
20260504170508 61 125 4.0 7.0 0.00 0.00 0.00 58 1011.5
20260504151008 60 148 3.0 7.0 0.00 0.00 0.00 61 1012.2
20260504150508 59 164 3.0 8.0 0.00 0.00 0.00 59 1012.3
20260504141008 58 148 2.0 8.0 0.00 0.00 0.00 61 1012.5
20260504140508 58 210 3.0 8.0 0.00 0.00 0.00 65 1012.7
20260504130509 56 155 2.0 5.0 0.00 0.00 0.00 70 1012.9
20260504110506 49 176 2.0 3.0 0.00 0.00 0.00 79 1012.5
20260504100507 48 176 0.0 3.0 0.00 0.00 0.00 79 1012.4
20260504081528 49 168 1.0 2.0 0.00 0.02 0.00 83 1011.8
20260504081008 48 170 1.0 1.0 0.00 0.02 0.00 83 1011.9
20260504080509 48 174 0.0 2.0 0.00 0.02 0.00 83 1011.9
20260504050509 43 196 0.0 2.0 0.00 0.15 0.00 86 1011.3
20260504050021 42 169 1.0 2.0 0.00 0.16 0.00 86 1011.4
20260504045507 42 193 0.0 3.0 0.00 0.16 0.00 85 1011.2
20260504045007 41 193 0.0 3.0 0.00 0.16 0.00 85 1011.3
20260504044527 41 191 0.0 3.0 0.00 0.16 0.00 85 1011.5
20260504044002 41 214 0.0 2.0 0.00 0.16 0.00 84 1011.5
20260504043506 41 217 0.0 2.0 0.00 0.17 0.00 84 1011.5
20260504043012 41 217 0.0 2.0 0.00 0.17 0.00 84 1011.5
20260504042507 41 217 0.0 2.0 0.00 0.17 0.00 83 1011.5
20260504042007 41 217 0.0 0.0 0.00 0.18 0.00 84 1011.4
20260504041513 41 217 0.0 0.0 0.00 0.18 0.00 84 1011.4
20260504041006 40 217 0.0 2.0 0.00 0.18 0.00 84 1011.4
20260504040507 40 217 0.0 2.0 0.00 0.19 0.00 85 1011.3
20260504040022 40 217 0.0 2.0 0.00 0.19 0.00 85 1011.2
20260504035507 40 217 0.0 0.0 0.00 0.19 0.19 84 1011.2
20260504035008 40 217 0.0 0.0 0.00 0.20 0.19 84 1011.2
20260504034524 40 217 0.0 0.0 0.00 0.20 0.19 84 1011.1
20260504034008 40 217 0.0 0.0 0.00 0.20 0.19 83 1011.0
20260504033512 39 217 0.0 0.0 0.00 0.21 0.19 82 1011.0
20260504033026 39 217 0.0 0.0 0.00 0.21 0.19 82 1011.0
20260504032510 39 217 0.0 2.0 0.00 0.21 0.19 81 1011.0
20260504032010 39 217 0.0 2.0 0.00 0.22 0.19 81 1011.0
20260504031510 39 217 0.0 0.0 0.00 0.22 0.19 81 1011.0
20260504031007 39 217 0.0 0.0 0.00 0.23 0.19 79 1011.0
20260504030510 39 217 0.0 0.0 0.00 0.24 0.19 80 1011.1
20260504030027 39 217 0.0 0.0 0.00 0.24 0.19 79 1011.0
20260504025507 39 217 0.0 0.0 0.00 0.26 0.19 79 1011.0
20260504025006 39 217 0.0 0.0 0.00 0.27 0.19 78 1011.0
20260504024521 40 217 0.0 0.0 0.00 0.28 0.19 77 1011.1
20260504024008 40 217 0.0 0.0 0.00 0.29 0.19 77 1011.1
20260504023507 40 217 0.0 0.0 0.00 0.29 0.19 76 1011.1
20260504023024 40 217 0.0 0.0 0.00 0.30 0.19 76 1011.1
20260504022507 40 217 0.0 0.0 0.00 0.30 0.19 74 1011.1
20260504022011 41 217 0.0 0.0 0.00 0.30 0.19 73 1011.1
20260504021531 41 217 0.0 0.0 0.00 0.31 0.19 71 1011.1
20260504021012 41 217 0.0 0.0 0.00 0.31 0.19 71 1011.0
20260504020506 42 217 0.0 1.0 0.00 0.32 0.19 70 1011.0
20260504020018 42 217 0.0 1.0 0.00 0.34 0.19 69 1010.9
20260504015507 42 217 0.0 0.0 0.00 0.35 0.19 68 1010.9
20260504015007 43 217 0.0 0.0 0.00 0.37 0.19 67 1010.9
20260504014518 43 217 0.0 0.0 0.00 0.38 0.19 67 1010.9